Regional Weather Roundup
Issued by NWS Goodland, KS

Home | Current Version | Previous Version | Text Only | Print | Product List | Glossary Off
Versions: 1 2 3 4 5 6 7 8 9 10 11 12 13 14 15 16 17 18 19 20 21 22 23 24 25 26 27 28 29 30 31 32 33 34 35 36 37 38 39 40 41 42 43 44 45 46 47 48 49 50

000
ASUS43 KGLD 241459
RWRGLD

GOODLAND FORECAST AREA HOURLY WEATHER ROUNDUP
NATIONAL WEATHER SERVICE GOODLAND KS
900 AM MDT WED AUG 24 2016

...OFFICIAL OBSERVATIONS...

CITY           SKY/WX    TMP DP  RH WIND       PRES   REMARKS
GOODLAND KS    CLOUDY    66  48  52 N10       30.15R
HILL CITY KS   CLOUDY    70  54  56 E6        30.04R
IMPERIAL NEB   CLOUDY    64  46  52 N10       30.15R
MCCOOK NEB     PTSUNNY   67  46  47 NE15      30.06F
AKRON CO       CLOUDY    63  40  42 NE6       30.23R
BURLINGTON CO  CLOUDY    68  42  38 NE14      30.17F
LIMON CO       CLOUDY    63  40  42 E9        30.25R
$$

...UNOFFICIAL OBSERVATIONS...

CITY           SKY/WX    TMP DP  RH WIND       PRES   REMARKS
COLBY KS       CLOUDY    70  54  56 NE12      30.12R
NORTON KS      SUNNY     68  46  45 NE17      29.99F
SHARON SPRINGS   N/A     68  51  54 NE10        N/A
KIT CARSON CO    N/A     68  43  40 MISG        N/A
YUMA CO          N/A     59  52  77 CALM        N/A
$$



USA.gov is the U.S. government's official web portal to all federal, state and local government web resources and services.